Flag for India Weather past 2 weeks in Firozpur, Punjab, India

Now
57 °F

Passing clouds.


Feels Like: 56 °F
Forecast: 42 / 64 °F
Wind: 7 mph from Northwest

Location: Lahore Airport

Current Time: Jan 27, 2015 at 2:24:18 PM

Latest Report: Jan 27, 2015 at 2:00 PM


Visibility: 1 mi

Pressure: 30.18 "Hg

Humidity: 72%

Dew point: 48 °F

Location of FirozpurLocation

Historic Weather in Firozpur — Graph

°F

Firozpur temperature yesterday

Maximum temperature yesterday: 57 °F (at 3:30 PM)
Minimum temperature yesterday: 46 °F (at 4:25 AM)
Average temperature yesterday: 52 °F

Past Weeks' High & Low Weather Summary

 TemperatureHumidityPressure
High70 °F (Jan 16, 3:00 PM)100% (Jan 12, 5:00 PM)30.24 "Hg (Jan 12, 5:00 PM)
Low41 °F (Jan 27, 6:55 AM)31% (Jan 17, 3:30 PM)29.92 "Hg (Jan 14, 3:55 AM)
Average54 °F76%30.11 "Hg
* Reported Jan 12 1:30 PM — Jan 27 1:30 PM, Firozpur, Weather by CustomWeather, © 2014

Note: Actual official high and low records may vary slightly from our data, if they occured in-between our weather recording intervals... More about our weather records

Advertising

Firozpur weather history for previous 24 hours

 ConditionsComfort  
Time TempWeatherWind HumidityBarometerVisibility
1:30 PM
Jan 27
57 °FPassing clouds.9 mph72%30.18 "Hg1 mi
12:55 PM55 °FPassing clouds.9 mph77%30.18 "Hg1 mi
12:25 PM54 °FFog.9 mph82%30.21 "Hg1 mi
12:00 PM52 °FFog.3 mph94%30.21 "Hg1 mi
11:30 AM52 °FFog.3 mph94%30.21 "Hg0 mi
11:00 AM50 °FFog.3 mph94%30.21 "Hg0 mi
10:30 AM50 °FFog.5 mph82%30.21 "Hg1 mi
9:30 AM45 °FFog.3 mph93%30.18 "Hg1 mi
8:55 AM43 °FFog.No wind100%30.18 "Hg1 mi
8:25 AM43 °FFog.3 mph100%30.15 "Hg0 mi
7:55 AM43 °FFog.3 mph100%30.15 "Hg0 mi
7:25 AM41 °FFog.No wind100%30.15 "Hg0 mi
6:55 AM41 °FFog.No wind100%30.12 "Hg0 mi
6:25 AM43 °FFog.No wind100%30.12 "Hg0 mi
5:30 AM43 °FFog.No wind100%30.09 "Hg0 mi
4:55 AM45 °FFog.No wind100%30.09 "Hg0 mi
4:25 AM46 °FFog.No wind87%30.09 "Hg1 mi
3:55 AM46 °FFog.No wind87%30.12 "Hg1 mi
3:25 AM46 °FFog.No wind87%30.12 "Hg1 mi
2:55 AM46 °FFog.No wind87%30.12 "Hg1 mi
2:25 AM46 °FFog.3 mph87%30.12 "Hg1 mi
1:55 AM48 °FFog.3 mph82%30.12 "Hg1 mi
1:25 AM48 °FFog.No wind82%30.12 "Hg1 mi
12:55 AM48 °FFog.3 mph82%30.12 "Hg1 mi
12:25 AM48 °FFog.No wind82%30.15 "Hg1 mi
11:55 PM
Jan 26
48 °FFog.No wind87%30.15 "Hg1 mi
11:25 PM48 °FFog.3 mph87%30.15 "Hg1 mi
10:55 PM50 °FFog.5 mph82%30.15 "Hg1 mi
10:25 PM50 °FFog.3 mph82%30.15 "Hg2 mi
9:55 PM50 °FClear.3 mph82%30.15 "Hg2 mi
9:25 PM52 °FClear.No wind72%30.15 "Hg2 mi
8:55 PM52 °FClear.No wind77%30.15 "Hg2 mi
8:30 PM52 °FClear.No wind77%30.12 "Hg2 mi
8:00 PM54 °FClear.No wind72%30.12 "Hg2 mi
7:25 PM54 °FClear.No wind72%30.12 "Hg2 mi
7:00 PM55 °FClear.No wind67%30.12 "Hg2 mi
6:30 PM55 °FPassing clouds.3 mph67%30.09 "Hg2 mi
6:00 PM55 °FScattered clouds.6 mph67%30.12 "Hg2 mi
5:30 PM57 °FScattered clouds.5 mph63%30.12 "Hg2 mi
5:00 PM57 °FScattered clouds.6 mph63%30.12 "Hg2 mi
4:30 PM57 °FScattered clouds.6 mph63%30.12 "Hg2 mi
4:00 PM57 °FScattered clouds.7 mph63%30.12 "Hg2 mi
3:30 PM57 °FScattered clouds.5 mph63%30.12 "Hg2 mi
3:00 PM55 °FScattered clouds.6 mph67%30.15 "Hg1 mi
2:30 PM55 °FBroken clouds.6 mph67%30.15 "Hg1 mi
Weather by CustomWeather, © 2014

See weather overviewHow to use our weather pages